Location: Ethel Rock
(53.4667°N, 4.5667°W)
Time: 05:08:08
(UTC+00:00)

Cosmos 2360 Rocket - Pass Details

Date: 24 October 2020
Orbit: 836 x 843 km, 71.0° (Epoch: 25 November)

Event Time Altitude Azimuth Distance (km) Brightness Sun altitude
Exits shadow 05:24:06 - 327° (NNW) 3,241 4.9 -15.2°
Reaches altitude 10° 05:26:32 10° 339° (NNW) 2,463 4.4 -14.9°
Maximum altitude 05:31:08 25° 34° (NE) 1,635 4.1 -14.2°
Drops below altitude 10° 05:35:44 10° 89° (E) 2,453 6.1 -13.5°
Sets 05:38:37 0° 103° (ESE) 3,384 7.2 -13.1°
